GFSSW_con_3kmhel_177.txt.gz
Helicity
74 71 69 65 66 66 65 61 51 40 37 26 28 36 44 49 62 -17 28 45 62 71 53 61 69 71 81 96 95 97 109 72 64 77 69 91 51 46 44 80 88 99 96 83 59
86 83 81 74 71 68 61 58 59 55 43 32 29 40 57 37 19 27 40 48 64 74 77 95 85 106 102 104 102 113 107 62 83 92 66 66 49 37 37 89 98 65 91 93 82
98 92 98 92 81 79 74 62 56 56 51 38 24 34 66 12 10 7 39 52 51 24 42 55 76 96 113 121 114 122 107 91 65 81 105 101 72 104 76 142 102 82 85 103 85
101 100 100 98 87 79 82 72 73 64 49 39 23 31 52 4 54 38 56 74 56 22 24 70 88 88 96 109 131 133 82 87 100 134 139 142 108 113 141 162 89 83 118 96 74
114 106 98 101 89 85 87 80 72 65 54 40 25 33 -10 52 38 84 121 120 82 89 93 85 95 105 119 120 141 136 122 127 75 58 108 132 143 157 168 84 106 107 110 122 99
120 120 112 112 102 92 82 74 72 73 55 51 47 23 10 50 72 92 108 91 108 108 94 87 87 113 117 127 140 159 144 100 92 58 97 129 142 242 201 152 158 122 91 95 111
137 129 125 116 112 98 90 90 89 83 63 54 60 9 29 52 83 96 63 68 79 74 69 84 109 109 136 148 136 129 126 111 96 104 146 154 248 259 93 188 177 144 88 80 100
144 144 133 133 121 118 110 122 111 104 97 69 63 21 25 49 45 26 39 38 33 41 69 121 189 165 179 173 150 133 134 198 196 155 154 166 200 155 184 177 112 131 125 98 104
166 160 166 141 136 138 148 140 140 119 117 102 72 67 9 89 84 92 83 98 115 127 122 189 267 265 257 230 208 235 238 219 241 192 199 210 173 216 143 94 51 75 117 136 103
180 174 173 162 161 166 191 191 143 159 136 124 141 93 99 136 119 141 85 99 144 199 261 277 312 372 421 361 356 241 270 249 200 216 208 193 46 129 83 85 85 61 93 134 110
193 193 173 189 190 219 273 257 213 164 207 186 94 150 205 209 145 163 155 166 223 259 245 275 307 471 449 306 191 207 247 228 283 166 158 157 126 89 57 71 55 39 101 122 101
226 197 183 179 208 205 267 321 268 235 183 61 87 154 167 182 218 239 220 235 274 253 327 331 250 249 248 184 186 176 184 202 153 82 153 100 86 75 83 96 90 69 126 143 123
221 193 200 205 210 260 219 187 199 163 199 109 157 174 205 202 270 215 300 349 325 266 264 247 285 110 189 200 168 145 152 146 123 120 92 65 26 93 78 45 72 190 215 180 121
185 216 241 336 307 325 224 173 216 170 306 214 182 186 198 293 231 170 131 231 241 122 264 149 142 194 212 197 160 125 129 80 94 129 117 174 42 71 63 59 129 188 165 144 122
205 119 156 212 200 197 150 203 195 139 301 128 194 128 96 139 202 211 163 134 145 204 182 185 163 129 137 140 172 165 115 82 94 151 138 162 212 173 167 82 48 115 122 136 125
153 180 117 227 158 118 185 238 212 238 327 165 157 113 133 86 140 128 96 96 72 145 153 142 209 185 129 114 128 142 153 167 160 142 186 165 215 132 146 26 81 144 165 149 111
158 133 153 221 191 252 272 270 387 338 256 182 190 134 115 119 131 133 128 119 130 122 114 124 66 166 195 172 182 154 183 250 215 285 299 161 135 200 188 198 191 167 163 158 146
105 116 137 173 166 284 317 320 420 299 386 222 189 147 138 138 143 128 159 143 162 199 159 126 106 36 76 126 179 178 245 334 302 263 236 177 240 201 158 166 207 226 206 171 172
72 86 164 146 150 278 282 423 342 318 261 268 162 121 176 170 206 177 159 162 106 119 155 127 141 87 84 20 96 191 218 152 203 226 271 225 173 115 220 252 229 224 247 245 180
108 157 199 296 228 215 363 347 277 270 282 271 189 145 146 210 226 207 183 148 126 51 109 136 190 90 136 124 61 93 127 284 353 396 346 268 215 268 214 181 175 246 222 181 97
183 175 221 286 313 352 266 395 299 236 327 233 184 234 229 213 223 254 252 228 201 170 61 146 152 167 140 162 136 176 143 317 345 361 415 355 288 208 135 171 178 217 206 115 86
299 190 259 347 396 453 284 321 391 241 501 499 400 306 210 263 272 295 226 217 225 186 124 173 208 189 117 140 164 156 161 191 391 376 387 334 257 270 225 125 139 161 140 98 113
418 396 316 362 405 494 422 343 421 513 629 326 219 282 374 268 300 243 228 281 236 223 183 217 246 222 182 165 271 270 283 261 222 327 331 398 342 321 279 276 234 220 116 118 156
406 389 432 458 391 411 459 459 481 476 434 511 343 525 343 274 358 319 265 189 237 242 244 283 333 329 246 268 258 237 188 299 272 396 343 389 292 345 301 237 190 133 110 176 112
383 544 530 446 484 386 491 273 305 342 344 368 508 525 377 381 304 334 213 261 227 266 282 313 324 282 219 242 252 256 281 373 432 307 366 297 278 265 247 220 175 87 134 155 125
287 241 231 347 277 313 326 290 244 296 247 306 282 269 387 294 287 220 248 317 321 338 287 244 325 285 297 215 242 294 259 320 394 442 492 542 464 389 216 223 322 238 138 134 123
187 231 286 339 322 336 269 235 203 243 265 204 191 281 180 108 91 151 154 171 203 263 273 265 277 282 284 214 188 165 114 204 201 216 283 344 315 191 558 368 257 298 239 192 133

GFSSW_con_3kmhel_180.txt.gz
Helicity
83 75 70 63 58 56 56 53 50 45 41 38 46 47 58 65 73 13 23 66 56 68 49 42 37 63 51 72 83 76 80 54 55 44 122 91 70 65 36 71 74 50 40 94 62
92 87 81 75 70 68 67 63 61 53 44 40 40 57 62 58 47 53 72 60 64 73 60 81 57 68 60 76 91 81 93 82 106 77 88 73 64 62 59 130 93 39 68 95 48
101 96 92 86 79 74 66 65 55 54 44 36 36 49 76 35 38 50 60 67 72 47 64 65 60 53 44 80 101 117 83 105 59 57 61 82 76 104 62 89 118 121 124 120 86
107 103 96 90 84 77 75 65 58 49 46 47 32 45 63 9 81 65 59 66 54 39 24 42 39 48 66 57 91 88 49 61 88 85 85 102 97 84 61 82 55 116 144 128 126
118 114 104 95 89 83 76 69 60 58 52 43 48 45 1 38 51 63 97 85 58 45 54 43 49 77 72 103 97 64 51 68 59 50 61 83 65 76 54 41 79 142 158 136 67
121 124 117 109 105 97 82 76 69 68 60 58 48 34 20 39 90 71 83 79 83 80 77 77 101 91 101 92 86 166 91 66 72 58 98 81 71 94 137 119 146 137 157 130 60
133 133 127 117 108 103 100 98 95 83 75 70 65 30 28 43 88 74 70 83 75 82 102 92 87 67 129 87 87 83 80 60 67 85 103 115 141 152 71 200 111 79 118 114 66
152 151 144 132 125 113 129 130 120 109 95 79 63 32 19 53 88 54 58 39 35 37 42 34 55 72 89 115 83 83 90 119 207 137 122 130 207 117 241 203 180 118 89 104 59
164 159 157 148 147 147 161 165 150 127 126 77 46 80 7 89 67 103 64 99 83 87 74 67 93 94 125 86 101 134 131 83 87 110 123 186 170 254 207 132 151 120 72 90 63
175 177 171 171 168 198 215 192 181 129 134 103 116 73 89 140 91 103 113 119 153 103 115 92 81 112 118 196 195 83 123 150 194 253 178 136 156 122 111 122 129 82 52 58 65
183 189 183 186 207 270 313 281 181 122 172 170 110 134 150 149 79 108 149 126 149 156 138 115 142 132 63 106 103 116 240 213 215 171 94 81 -87 -15 64 103 82 70 45 48 68
195 201 192 212 257 242 204 271 205 371 105 48 64 108 188 251 214 180 180 238 172 138 113 216 136 79 144 188 131 106 127 127 127 91 111 73 -23 -27 -0 68 38 15 20 63 75
219 216 216 269 282 304 219 144 280 178 194 138 90 172 197 160 239 184 179 166 152 141 157 186 235 282 114 137 126 120 123 62 65 64 73 24 -32 53 159 64 58 51 62 101 77
235 271 289 360 346 376 234 178 247 194 264 200 198 190 191 256 276 125 141 195 195 214 220 237 159 148 159 122 130 133 116 74 63 73 77 151 31 33 55 69 40 81 78 102 105
290 295 378 324 517 451 400 330 319 276 346 242 295 268 201 159 372 205 237 224 207 252 212 189 68 19 47 44 41 60 66 84 69 62 47 77 116 126 91 92 92 102 93 92 66
280 289 263 347 410 292 283 306 272 539 498 237 204 188 211 118 163 150 144 135 125 112 57 24 82 54 38 51 20 93 77 66 83 67 113 54 140 128 238 270 199 123 85 101 103
279 317 297 405 471 368 276 255 452 490 278 271 216 124 91 137 115 95 69 64 113 133 71 34 8 47 68 88 75 73 92 153 138 204 195 223 172 179 175 213 192 142 99 114 124
351 352 331 457 298 252 322 397 557 360 350 219 155 186 164 138 90 67 95 101 81 82 99 67 54 19 3 -27 72 47 66 204 211 145 170 203 207 228 243 196 153 147 180 181 156
369 326 162 164 126 164 242 351 300 246 161 234 193 170 200 188 211 121 85 99 92 45 89 67 70 103 42 8 4 102 98 12 156 190 236 243 182 109 139 173 173 139 138 157 171
224 224 209 267 153 187 186 284 264 310 285 204 189 128 131 155 163 116 108 109 100 60 53 168 92 79 91 114 88 119 155 229 262 341 331 258 184 234 148 95 39 103 141 190 196
298 179 172 281 172 207 316 308 259 170 247 245 161 157 102 135 140 160 194 188 139 65 6 93 146 182 125 114 102 132 155 234 212 203 265 250 246 244 215 126 54 59 124 183 134
122 202 216 287 311 317 367 298 218 208 267 333 338 211 167 158 122 147 169 176 168 176 200 134 215 167 119 98 101 143 126 104 223 221 240 188 200 216 148 167 85 74 148 164 139
125 152 171 279 271 302 335 268 228 201 185 238 169 155 161 199 225 150 191 289 245 243 196 195 211 167 141 126 117 171 77 118 130 140 157 216 222 118 231 155 142 132 187 222 165
223 191 165 197 264 264 318 286 308 401 343 375 337 206 195 239 273 297 211 262 297 304 322 332 245 243 242 265 259 174 121 130 124 198 194 170 116 69 172 145 134 158 195 248 244
338 257 283 241 245 317 269 196 387 339 424 324 364 248 291 298 198 240 267 266 319 293 321 319 269 250 218 169 90 116 166 180 207 177 175 122 122 97 102 165 104 108 115 143 274
372 289 390 374 273 383 238 308 241 378 299 394 353 295 483 423 373 314 385 398 509 400 398 410 404 272 190 103 90 185 169 134 123 133 203 245 246 164 206 438 350 283 249 234 202
172 315 407 287 445 399 374 371 381 273 407 486 325 321 289 331 360 403 384 332 339 338 368 311 275 266 253 170 164 239 249 154 100 115 174 228 240 164 241 201 225 309 408 502 533

GFSSW_con_3kmhel_183.txt.gz
Helicity
104 96 92 81 74 61 55 52 48 50 47 50 58 67 81 86 105 66 44 84 105 75 53 19 17 23 22 16 40 45 51 27 -3 30 72 164 48 80 60 69 81 38 33 69 160
109 110 101 91 82 71 61 54 49 43 44 47 51 64 93 99 87 79 105 140 120 96 47 75 58 62 32 45 66 42 37 21 60 125 95 86 61 86 68 71 76 75 60 42 147
113 111 111 101 88 76 65 53 47 46 48 49 52 61 84 85 91 105 97 113 100 90 71 65 62 65 56 52 48 30 30 38 63 77 107 65 81 80 72 75 42 96 112 88 73
119 116 114 108 92 79 69 58 49 46 48 48 51 62 81 52 159 85 75 69 55 37 39 50 48 35 32 43 28 53 26 32 55 79 67 59 91 95 60 60 48 64 97 111 83
131 125 117 111 99 84 73 64 58 55 54 48 48 67 43 43 61 43 50 34 34 34 37 39 44 43 35 63 77 49 21 43 55 61 54 52 50 54 60 69 53 62 108 123 102
141 133 122 114 111 96 87 80 73 69 65 61 51 54 31 34 92 71 42 47 38 47 56 73 115 154 108 77 90 86 80 43 50 39 56 65 62 60 91 91 63 133 131 120 112
133 146 133 119 120 109 100 89 89 84 73 63 50 50 27 36 73 57 37 56 65 73 87 97 113 104 165 80 92 69 55 32 46 39 40 62 102 82 36 66 95 167 148 107 140
145 146 152 136 129 131 124 114 109 98 87 63 41 33 10 66 71 58 49 39 37 55 63 81 72 86 106 82 63 45 39 56 24 78 72 162 164 74 39 127 137 167 135 134 55
156 157 160 161 140 164 161 155 131 112 102 53 28 46 -6 81 41 54 58 61 46 67 69 78 64 87 112 91 95 60 63 49 49 49 89 151 120 118 79 120 106 98 78 112 2
168 172 169 166 178 204 215 168 148 123 96 80 112 71 79 69 89 61 44 129 134 114 116 102 146 170 132 89 109 90 109 76 55 69 99 150 170 132 80 -7 -60 -71 9 55 34
166 168 182 181 220 261 306 301 185 107 118 156 64 75 92 109 68 62 88 71 135 137 175 126 212 209 109 78 53 82 75 63 58 72 129 127 109 116 72 55 -62 -6 68 29 22
180 182 190 202 238 239 189 232 116 274 61 -14 23 75 147 209 145 80 62 145 167 187 163 248 221 170 150 139 146 149 106 78 62 71 99 84 72 56 -24 26 49 35 15 21 15
200 200 209 245 252 267 154 110 230 217 136 66 26 72 98 121 131 119 110 106 190 189 188 206 190 190 229 236 162 152 130 130 120 129 151 100 -1 33 69 145 46 62 13 57 52
236 218 267 339 299 306 165 136 216 190 151 69 65 149 84 146 219 127 170 175 239 223 184 242 179 167 160 168 167 133 132 106 94 116 128 150 -8 79 -1 11 79 73 121 86 139
241 260 322 354 421 357 256 235 344 267 221 116 206 316 207 260 379 175 70 191 227 233 297 270 195 161 141 92 102 141 75 93 96 89 87 67 67 63 13 16 59 131 79 60 94
331 354 353 347 390 229 296 439 440 336 306 214 281 217 234 130 225 379 294 144 235 119 203 190 154 179 188 148 63 43 106 70 54 51 97 22 56 76 115 301 323 237 50 81 48
327 357 480 465 490 422 446 485 524 585 368 270 327 254 117 185 201 200 183 163 191 237 148 87 75 61 80 59 55 75 88 86 64 104 109 151 131 84 133 91 225 187 102 40 53
269 336 378 560 541 663 489 386 768 467 347 353 236 232 193 191 143 108 118 138 44 54 212 114 147 11 30 19 61 37 34 102 134 80 104 122 152 134 207 182 161 144 125 157 92
317 324 366 513 561 659 421 374 425 274 250 442 290 252 336 232 197 126 97 91 51 28 120 94 128 87 77 47 6 61 53 -14 73 95 120 112 105 59 188 144 130 113 93 59 68
372 409 463 484 523 527 385 437 339 431 455 261 442 229 209 158 157 135 120 58 53 59 33 172 225 49 51 60 48 30 102 66 139 169 117 72 84 123 69 65 67 70 25 31 60
416 525 629 803 504 489 413 441 398 394 409 298 254 206 201 163 112 116 171 189 50 72 79 121 155 138 159 57 34 68 61 156 222 193 148 113 114 103 211 149 145 56 71 59 40
292 553 389 595 532 485 499 520 349 234 198 232 231 159 247 266 298 192 169 103 129 158 154 91 200 178 99 42 23 29 72 80 206 129 169 117 126 119 117 87 70 104 77 72 94
364 235 177 357 571 560 427 315 184 167 145 295 238 244 257 331 350 286 227 175 121 123 125 134 182 174 122 107 92 185 195 199 208 197 208 251 256 123 99 61 79 93 101 94 119
388 417 324 248 353 289 317 297 306 386 217 276 270 232 219 227 249 270 109 128 158 166 313 344 141 137 125 121 208 132 65 107 123 235 241 232 161 91 97 69 83 90 94 55 177
351 244 271 240 226 266 234 149 304 325 358 277 222 146 177 196 107 93 110 211 188 248 338 359 248 151 130 118 130 170 190 218 199 194 273 240 195 159 96 84 115 83 105 81 123
353 183 256 142 126 157 105 154 137 220 173 233 198 222 224 227 234 172 54 122 268 279 215 276 322 220 170 144 179 200 199 199 175 162 112 87 104 102 78 106 102 92 87 239 288
179 242 207 146 140 154 184 179 138 250 271 271 270 309 280 273 296 329 346 382 391 409 312 402 385 338 291 160 192 279 274 232 183 146 119 163 138 101 119 135 94 106 112 80 167

GFSSW_con_3kmhel_189.txt.gz
Helicity
86 92 92 87 82 69 61 54 49 47 52 59 64 76 89 77 103 1 55 36 39 46 27 43 27 29 42 79 59 72 83 41 37 113 44 32 49 30 66 82 96 59 46 118 108
87 88 94 93 85 80 69 58 53 53 55 62 70 80 92 74 45 66 53 59 55 53 70 102 115 120 67 45 88 117 105 53 32 31 61 55 79 111 87 98 131 86 39 191 192
82 90 95 103 91 80 72 67 61 56 61 65 77 90 114 77 73 69 24 45 59 93 93 107 100 118 82 83 69 78 99 75 42 89 55 89 82 46 142 116 139 123 113 49 119
87 104 96 108 105 83 73 67 64 65 63 70 81 95 156 43 123 94 18 20 56 99 122 153 142 138 112 111 94 103 62 97 86 85 44 82 130 102 90 64 103 102 72 94 66
106 113 113 105 115 98 79 69 61 62 66 73 77 91 82 84 76 31 -41 6 59 73 98 112 114 110 97 96 131 110 85 79 74 49 70 78 72 105 59 97 75 61 52 67 89
103 120 123 117 121 111 94 80 71 58 64 71 84 108 42 71 85 55 -25 29 38 42 56 67 65 131 91 63 100 105 88 64 33 38 49 65 67 103 42 94 89 103 119 124 144
126 121 125 123 128 120 107 96 91 71 61 69 75 58 60 62 84 100 97 61 73 99 92 118 177 162 186 127 146 111 106 49 15 27 73 104 107 72 86 106 103 92 71 161 205
133 136 136 137 144 141 122 109 95 85 73 70 85 45 19 42 65 77 73 66 55 62 80 83 168 155 128 107 94 78 108 126 53 79 53 122 43 133 75 140 123 124 156 219 145
147 149 138 146 158 156 143 128 113 91 84 84 84 33 12 55 88 57 91 104 95 77 73 86 152 131 142 106 106 87 155 132 73 81 132 69 131 78 -10 53 100 90 175 220 217
164 161 154 152 167 191 193 157 132 126 111 96 115 129 109 96 68 78 80 100 154 129 112 103 177 170 121 190 206 157 125 108 129 69 42 49 49 19 13 -1 69 157 178 205 226
174 163 162 171 197 234 303 300 216 178 151 162 84 175 152 21 141 118 107 114 86 164 193 168 193 194 146 162 137 114 93 72 59 31 79 115 93 74 106 149 127 107 157 124 142
176 174 189 187 228 228 265 323 184 136 76 51 94 64 132 138 150 108 104 138 122 125 125 182 125 137 113 92 83 70 59 85 136 142 124 147 117 130 112 119 128 106 85 73 162
194 199 205 229 217 257 246 207 180 270 167 -3 72 129 116 104 140 112 118 140 118 112 126 168 184 65 68 53 53 77 104 135 145 166 181 176 100 123 118 103 36 128 183 188 174
274 204 234 279 289 286 262 101 162 202 203 62 16 66 180 219 252 152 157 181 214 144 96 101 71 62 111 86 89 128 130 141 214 237 197 179 -1 109 101 76 69 112 215 164 159
286 225 302 298 416 344 320 101 172 211 249 101 100 106 132 352 300 141 193 183 154 244 189 233 163 24 42 57 104 177 224 226 242 261 230 251 276 202 95 55 10 242 212 210 82
297 236 258 295 389 280 204 235 309 404 327 272 215 220 323 220 320 343 153 172 202 155 157 180 166 237 216 215 226 312 345 355 339 311 230 338 226 128 85 112 240 278 194 102 58
217 290 298 327 463 270 237 416 632 551 324 316 324 296 189 177 131 304 263 210 290 379 216 105 75 77 168 221 273 409 484 416 269 299 256 161 141 145 57 79 100 125 114 97 70
80 246 288 438 365 320 444 632 757 460 484 279 222 152 167 181 192 172 254 263 192 327 393 267 231 220 331 275 412 507 525 546 278 178 143 103 237 107 132 166 120 78 107 134 97
103 217 210 370 489 546 524 578 777 586 351 574 427 271 207 186 281 218 199 234 274 214 357 283 213 162 173 73 237 400 362 292 214 146 187 230 199 76 194 268 302 236 127 86 64
212 201 231 216 739 716 672 716 540 521 455 171 435 430 359 283 214 160 232 239 284 288 211 319 234 203 210 178 127 331 360 262 229 286 249 256 198 171 190 170 158 91 79 95 68
460 324 360 263 635 777 670 574 403 306 445 293 240 391 413 352 156 247 348 203 78 183 256 174 300 349 330 350 264 243 161 280 263 271 310 312 276 87 82 107 111 149 122 58 89
445 336 524 476 457 665 734 672 419 316 240 375 455 232 239 211 182 197 242 192 302 109 173 165 308 356 316 242 165 107 140 238 287 343 247 249 213 113 116 81 71 69 81 97 103
372 481 486 285 304 430 749 500 425 395 330 482 442 407 235 272 300 390 229 279 285 168 80 81 237 367 357 203 154 138 131 119 158 207 268 329 324 95 104 135 83 122 63 102 133
328 391 571 290 433 504 570 483 435 353 304 387 409 378 390 266 370 322 403 339 232 224 348 315 442 350 560 559 303 259 267 296 221 357 303 225 91 69 93 74 90 118 109 85 95
307 178 307 381 372 374 451 379 584 466 375 345 354 335 455 376 343 310 455 460 353 318 308 322 322 433 404 421 300 120 108 162 227 255 269 98 107 50 63 85 207 210 241 256 228
344 262 329 301 240 355 379 413 446 729 506 536 481 531 513 482 485 494 511 336 363 257 325 186 382 456 460 508 421 412 296 239 134 77 73 95 112 142 152 190 250 299 350 421 555
522 539 463 400 503 440 542 412 438 620 634 650 623 698 591 571 520 340 347 141 90 167 177 168 171 124 286 286 143 153 118 105 81 68 118 149 156 208 254 248 201 271 377 380 318

GFSSW_con_3kmhel_192.txt.gz
Helicity
79 77 82 77 75 70 63 65 65 63 60 58 61 68 76 63 108 4 44 28 31 52 52 61 79 85 79 66 66 98 96 70 63 116 150 153 138 48 48 84 90 80 91 78 180
79 78 82 86 81 74 66 56 63 67 69 71 70 76 83 60 30 63 28 42 46 68 52 81 113 133 85 81 103 123 102 45 58 77 76 120 128 95 96 97 121 124 140 150 214
81 80 84 91 91 80 68 65 49 53 64 77 84 95 98 57 58 61 31 30 48 73 77 75 96 107 96 110 109 113 60 72 50 76 102 87 128 76 109 99 144 143 146 156 207
99 83 88 93 96 92 79 64 60 50 52 67 83 109 161 45 101 107 41 24 35 84 123 139 155 150 108 112 104 98 60 65 55 86 111 83 87 104 77 74 83 69 88 142 164
136 101 94 96 104 105 96 79 63 60 54 59 72 92 86 96 71 45 7 32 67 85 111 136 140 130 127 134 157 95 71 89 42 47 67 60 50 58 15 75 61 44 40 40 82
155 126 109 117 114 119 105 97 82 73 76 76 79 93 65 69 59 80 67 58 57 64 89 111 145 146 135 113 133 151 86 42 9 7 14 60 29 57 4 26 7 -5 23 42 98
153 167 136 128 125 129 121 111 91 77 75 94 101 58 62 69 79 124 110 92 92 85 110 135 125 144 134 96 123 84 68 13 -7 18 18 65 62 74 55 32 98 52 65 47 101
150 179 172 154 149 139 133 122 115 96 88 81 103 64 -4 33 99 63 32 56 70 90 89 86 124 126 128 107 128 97 89 61 53 63 38 76 110 87 107 114 85 74 58 90 113
165 169 196 190 169 159 151 134 119 108 109 108 90 59 -0 84 81 47 84 105 120 93 81 103 127 146 141 149 128 90 144 113 59 52 94 125 108 115 80 79 83 106 107 93 74
145 172 188 199 193 194 194 172 160 168 169 137 155 123 125 104 105 102 123 143 138 146 145 153 215 219 168 228 196 142 132 104 111 71 108 54 65 47 22 31 49 44 56 76 130
400 187 168 196 213 253 312 343 291 255 255 227 127 223 200 147 151 110 118 197 215 241 190 189 302 259 161 222 188 154 130 119 97 59 77 59 10 -9 -16 -7 10 14 10 92 149
491 198 164 206 236 271 332 357 300 203 161 105 139 148 187 214 223 146 140 216 231 204 203 246 230 141 150 126 140 112 87 83 103 79 111 58 -68 9 114 143 120 83 76 61 111
329 220 189 223 242 309 279 289 196 203 148 84 130 147 129 136 156 174 156 192 192 195 183 248 187 76 130 100 116 109 134 103 115 116 115 69 -168 159 195 189 113 105 143 151 155
188 229 242 274 286 298 300 161 332 241 197 53 123 107 186 240 188 212 135 164 170 152 175 149 118 130 106 129 136 117 129 81 122 122 73 166 -116 107 214 94 100 116 171 207 193
-29 190 321 291 457 367 352 105 263 258 303 89 134 158 177 387 313 191 274 229 212 224 235 233 140 70 148 168 102 186 119 145 194 143 127 215 234 372 136 65 18 116 173 201 121
-1 151 298 353 427 339 208 178 329 478 259 227 162 260 365 310 380 306 216 317 207 216 166 191 235 170 171 167 156 201 241 246 281 255 202 308 378 146 136 87 59 84 214 148 129
7 102 353 452 531 335 320 443 614 509 315 315 328 295 276 293 282 386 324 305 386 384 209 184 113 178 199 216 177 273 417 353 300 328 267 238 260 216 81 102 93 152 117 99 103
-180 110 426 460 398 330 442 582 635 250 402 269 179 162 216 330 244 263 266 268 235 397 351 230 194 145 179 229 344 312 401 437 229 277 242 194 221 71 63 127 74 53 81 98 86
-65 109 336 515 418 433 610 599 526 394 270 612 269 298 361 303 283 282 301 254 236 259 350 297 252 187 207 150 293 348 398 452 408 401 300 280 270 190 215 252 164 138 126 116 94
101 160 228 383 518 499 627 643 507 473 236 272 463 386 357 329 366 365 424 381 378 227 297 329 224 202 190 201 163 176 293 405 488 406 339 311 230 281 307 274 227 177 120 94 97
286 191 95 252 594 548 637 433 589 634 487 263 285 431 361 364 358 446 396 328 159 236 186 212 310 252 235 238 196 292 237 367 382 503 425 329 232 250 182 201 201 211 158 136 175
408 265 309 339 535 538 571 246 338 332 536 517 513 391 375 345 307 369 294 367 306 161 139 250 240 133 139 219 218 240 308 403 477 501 456 355 302 85 207 296 232 191 148 105 88
470 200 368 389 389 453 482 322 291 328 294 473 428 398 410 403 445 339 365 431 345 302 241 219 234 199 135 60 154 243 281 360 556 418 286 452 367 320 386 275 167 116 82 49 45
427 476 354 422 377 470 500 471 479 307 221 342 277 350 335 342 423 366 322 300 380 361 308 319 342 325 233 208 369 459 444 312 339 443 400 337 344 217 191 137 127 135 130 142 176
344 506 412 427 381 329 382 378 553 530 315 287 242 209 296 318 296 333 374 437 262 290 479 440 392 302 198 381 552 526 652 666 624 613 537 512 434 314 173 57 7 13 155 300 351
246 345 530 421 401 336 337 427 339 558 414 414 305 259 279 317 396 328 281 322 361 351 712 551 493 537 432 536 625 485 451 564 662 590 419 299 257 154 125 95 147 161 207 247 277
251 305 351 334 421 367 331 321 277 346 443 322 261 284 207 200 277 310 467 430 371 348 580 530 534 473 505 524 514 461 355 451 553 447 306 382 315 178 159 163 161 269 292 263 288

GFSSW_con_3kmhel_198.txt.gz
Helicity
273 100 116 105 78 65 65 80 68 63 63 50 70 79 80 55 72 -8 71 28 38 60 46 62 57 72 69 75 88 74 99 76 59 82 85 97 181 144 122 164 137 91 75 54 127
185 202 131 102 95 76 73 73 84 71 71 58 57 82 81 53 12 68 23 36 58 76 66 74 75 82 99 89 98 112 83 30 60 66 88 107 90 133 108 133 132 101 89 88 126
144 251 259 289 124 77 84 79 78 84 73 76 59 70 83 44 46 45 66 48 80 86 62 62 76 81 91 96 89 82 72 70 70 70 76 42 67 45 70 77 83 74 72 79 95
143 169 203 262 111 121 87 87 84 86 81 75 81 77 97 35 127 113 111 102 92 92 87 83 96 101 92 87 94 95 66 80 83 94 80 51 32 38 44 63 73 62 79 107 141
139 138 156 266 93 134 116 91 84 84 99 88 90 97 60 52 86 46 52 98 100 91 95 97 96 96 95 86 104 82 69 74 70 78 55 64 52 53 -4 58 69 37 74 89 130
28 130 154 214 276 136 130 117 98 79 77 95 109 115 58 32 47 68 103 46 93 101 96 103 94 99 90 93 91 88 70 52 46 62 82 86 52 56 40 40 21 61 96 73 27
-20 -3 163 177 254 142 140 138 108 94 67 83 115 106 70 62 50 120 117 102 86 87 112 106 105 106 105 94 103 81 44 48 31 71 86 125 64 107 43 64 56 125 129 107 61
24 -72 86 196 264 138 164 146 135 101 72 71 108 97 -3 33 69 58 50 85 80 85 100 96 96 98 99 106 113 94 71 53 67 65 66 92 92 57 79 94 86 102 112 98 108
63 18 42 228 299 146 151 148 157 128 117 81 99 90 -7 71 65 57 88 82 90 114 130 136 131 124 125 131 127 133 106 77 43 44 81 137 120 43 148 143 72 41 58 56 62
68 79 50 88 310 215 151 169 175 201 208 168 137 123 143 100 80 88 120 146 152 167 174 162 172 166 181 187 139 102 135 99 84 43 63 128 100 33 45 65 29 16 33 53 64
69 77 100 0 237 267 240 321 339 298 297 311 177 321 272 208 160 147 178 214 246 239 226 192 205 197 110 199 187 130 101 98 87 64 50 87 112 17 9 53 51 36 78 94 94
76 74 88 52 113 275 293 347 330 348 261 247 244 150 233 261 221 221 122 324 317 305 313 299 194 165 150 110 134 120 100 84 52 35 77 56 8 59 57 75 98 64 53 105 126
98 69 69 82 17 242 252 232 328 317 243 98 137 172 213 120 193 172 190 256 306 321 284 298 213 109 157 172 177 163 176 161 143 92 34 78 87 80 84 123 71 107 139 106 90
118 85 88 71 44 156 273 276 330 250 275 70 92 146 192 237 194 193 181 261 259 178 233 175 195 232 191 173 184 163 141 111 132 156 135 103 142 160 119 84 114 61 71 56 123
140 68 68 31 44 188 359 359 344 421 269 23 126 131 106 295 234 249 218 266 244 264 308 239 184 189 243 206 180 163 94 63 107 161 170 274 268 197 98 94 16 71 78 92 136
142 83 29 184 26 70 327 422 410 520 319 207 144 217 368 230 319 272 375 316 199 221 244 203 175 213 198 201 206 138 193 155 167 176 262 317 338 265 223 124 132 100 141 84 174
154 107 91 189 -5 45 551 539 643 529 358 307 281 197 251 401 308 379 309 348 397 424 303 269 280 349 285 299 260 257 294 244 247 341 331 200 314 277 226 192 168 127 138 136 225
158 96 48 140 -15 -48 453 661 653 529 418 362 296 159 193 355 332 360 345 334 266 422 333 335 244 284 343 350 333 274 378 325 254 280 221 205 396 273 89 157 154 172 190 274 268
176 197 80 76 -57 58 356 539 929 534 438 499 281 344 284 306 277 394 336 338 339 396 407 378 291 241 193 342 391 326 336 344 302 229 221 302 393 359 300 274 321 221 245 265 267
260 127 90 25 65 53 230 613 655 645 392 637 456 375 423 281 384 339 363 258 362 263 461 353 310 165 234 222 157 338 282 399 422 370 382 357 336 421 315 160 204 233 294 278 249
246 90 25 54 69 -58 162 724 350 469 758 396 495 484 371 392 319 316 233 298 202 266 294 404 352 324 238 294 344 315 162 384 351 379 394 321 362 291 173 161 180 164 208 221 235
215 3 -4 126 157 78 129 548 380 445 755 527 427 493 347 339 345 255 241 247 161 303 243 346 314 283 284 264 199 256 285 248 459 436 464 441 203 281 223 207 216 239 225 263 306
165 19 65 183 -55 232 86 247 427 609 496 583 539 493 468 438 409 329 283 229 219 207 249 394 373 416 356 359 356 422 367 354 295 432 337 477 286 326 242 223 258 374 451 442 427
114 -15 25 164 295 266 270 252 486 292 650 596 561 484 451 469 430 273 327 372 306 182 212 263 402 362 344 396 381 375 337 351 460 500 337 282 198 259 276 269 345 489 511 483 441
71 25 114 85 188 237 204 282 413 635 503 576 654 530 532 538 489 462 441 485 522 386 387 299 364 338 251 377 412 361 332 255 343 284 345 194 176 243 188 267 437 543 560 587 544
107 -17 43 146 61 153 186 224 347 496 636 505 479 600 641 543 561 607 529 470 477 479 426 484 409 369 274 319 325 307 252 225 194 122 134 148 166 303 376 387 388 447 515 592 570
141 54 -3 140 33 183 252 225 215 398 464 460 575 604 478 467 499 492 484 470 337 324 463 468 444 443 277 270 260 251 171 173 168 160 177 212 247 452 490 488 556 592 561 449 451

GFSSW_con_3kmhel_201.txt.gz
Helicity
73 85 166 99 111 109 78 87 90 82 88 107 99 92 80 41 64 12 88 57 43 61 57 61 57 62 58 66 71 64 78 63 56 66 96 103 141 94 139 168 146 107 88 54 74
93 71 82 168 197 163 114 101 105 99 91 98 113 101 91 47 2 97 36 52 52 75 68 81 76 81 80 72 75 87 64 33 62 64 102 106 90 52 84 146 123 99 89 70 70
111 102 60 119 146 170 124 92 102 95 90 91 103 116 105 58 30 60 89 54 64 79 65 64 70 78 85 72 70 67 57 60 75 69 64 59 38 16 21 60 81 99 63 49 54
122 115 90 64 121 117 84 118 103 109 88 82 98 116 148 53 148 92 133 100 76 74 72 79 88 93 82 78 73 66 56 53 74 74 64 44 13 6 8 33 36 48 45 76 73
96 103 118 92 52 149 68 106 108 109 103 89 90 106 106 77 93 30 84 136 88 88 95 88 89 88 84 71 74 61 60 54 71 67 55 67 11 -18 -21 8 -5 17 36 61 76
52 93 104 170 93 100 133 119 114 128 105 93 97 129 88 66 55 66 57 77 96 109 100 91 75 87 80 78 70 56 57 48 40 41 67 74 34 64 22 30 -17 17 58 65 86
24 45 90 125 186 65 141 95 111 135 116 97 76 81 100 72 78 109 136 80 70 114 107 102 91 100 92 85 80 54 35 31 30 65 66 61 31 89 57 43 32 63 83 92 86
39 36 54 91 220 165 137 94 111 133 124 111 99 77 22 37 59 49 79 115 100 75 82 90 106 112 113 103 90 64 21 35 63 49 78 32 13 61 70 106 86 40 40 75 76
48 55 59 81 127 212 167 103 111 127 142 111 129 113 -10 41 62 69 67 97 104 123 131 120 103 122 137 123 98 108 60 50 14 38 73 66 32 60 108 104 71 32 5 26 18
56 71 76 87 89 194 130 162 144 201 196 207 199 118 130 99 62 86 103 105 136 143 159 160 162 139 175 151 99 83 72 48 38 55 55 72 47 32 56 38 -24 -56 -48 -24 -15
79 80 99 101 98 199 147 318 399 275 337 336 193 322 254 182 141 141 158 175 200 191 177 191 170 147 130 113 149 103 89 65 45 44 37 39 47 53 20 24 -35 -19 11 20 16
100 108 109 118 118 125 200 306 318 362 384 313 267 163 258 183 265 179 164 270 267 203 231 182 118 98 96 96 98 108 84 70 38 34 24 21 19 14 64 71 72 45 14 24 27
115 132 113 130 145 174 77 117 236 307 243 154 212 231 260 136 224 199 146 241 281 237 187 200 156 73 137 119 122 121 120 114 85 68 12 6 -30 25 42 35 47 37 46 39 78
127 129 137 166 160 184 193 -5 105 318 249 71 119 111 202 249 193 187 99 228 234 160 253 137 155 144 99 124 152 128 84 92 80 89 66 81 -3 78 96 76 76 11 55 70 79
138 125 118 199 284 181 148 283 175 342 385 25 110 112 111 308 229 210 193 234 212 254 273 224 148 169 180 233 148 141 76 58 117 123 127 98 108 203 169 124 62 88 63 99 80
129 121 107 188 218 118 133 143 128 520 586 332 256 213 254 189 295 271 249 271 214 198 261 214 197 182 195 191 178 155 209 174 175 159 128 155 191 33 209 93 136 29 77 87 100
113 111 176 221 174 138 91 156 230 618 557 629 506 225 230 384 218 350 285 249 372 372 290 256 235 261 246 299 233 264 293 245 191 195 185 136 166 180 230 187 104 111 124 115 142
89 130 196 192 160 132 173 22 210 443 521 444 554 200 187 323 324 307 320 272 203 316 230 303 267 301 319 349 342 229 327 314 186 176 127 131 249 242 49 76 115 167 138 168 170
91 219 223 185 145 124 156 84 98 260 449 664 482 415 413 343 307 379 308 277 289 293 348 265 245 293 283 382 352 319 271 182 209 179 168 191 186 202 282 253 214 60 136 181 201
128 215 202 204 132 48 151 31 80 298 376 580 782 708 652 346 467 361 346 260 307 252 353 314 259 161 134 158 170 228 216 290 357 303 292 275 242 257 234 106 53 36 134 137 152
193 222 186 274 209 78 31 124 103 389 428 409 625 724 604 592 383 337 288 306 227 283 327 370 311 290 198 271 301 368 339 373 361 375 367 314 243 153 120 73 58 73 125 133 175
238 254 190 273 181 122 -73 129 33 146 276 239 434 577 578 517 441 410 288 240 175 312 328 345 359 322 322 364 249 203 271 510 388 348 368 311 260 300 295 236 202 170 168 158 195
234 305 170 188 180 29 54 53 12 -118 141 226 417 482 446 584 536 374 265 249 237 162 221 360 356 336 279 275 298 291 270 242 285 337 279 471 359 289 262 258 270 163 168 255 349
285 213 241 163 169 19 53 37 61 166 158 249 340 391 482 484 532 295 326 351 238 120 251 316 376 306 306 309 373 421 311 274 278 324 233 311 237 256 314 301 210 141 206 309 369
252 293 276 83 71 75 100 32 82 197 171 319 422 351 466 445 354 377 375 435 418 238 309 265 253 295 266 334 218 159 263 237 268 257 374 218 247 215 230 176 101 163 240 328 374
256 213 219 107 53 71 157 151 69 85 236 317 341 359 418 379 494 582 472 541 554 498 298 384 382 297 206 178 219 261 188 119 234 219 237 218 197 298 278 212 173 201 310 361 389
267 235 158 98 -4 106 140 132 88 127 204 188 421 374 453 413 339 435 503 531 392 428 348 388 397 399 309 266 215 250 186 221 313 317 355 360 315 243 193 148 214 285 311 406 492

GFSSW_con_3kmhel_204.txt.gz
Helicity
109 128 114 120 70 113 107 95 97 107 96 115 102 99 106 116 185 91 141 85 77 80 73 53 33 38 26 48 48 60 70 61 69 56 100 85 86 119 135 87 111 107 95 116 91
169 135 129 74 111 105 85 87 89 107 111 106 112 101 103 101 129 137 74 71 61 73 68 56 47 50 55 58 53 53 76 81 97 90 94 74 93 119 89 65 79 63 72 85 75
186 166 152 121 110 98 82 49 80 81 114 114 111 117 112 121 102 93 83 59 68 78 75 74 67 60 68 71 61 68 78 91 66 74 76 76 64 82 47 37 26 37 47 73 70
127 174 160 149 120 112 94 39 51 68 105 119 118 118 150 100 197 99 166 131 83 82 77 79 66 63 81 73 76 67 69 60 72 67 65 59 69 62 4 -8 15 -9 -4 24 54
66 101 134 156 163 102 136 50 35 47 89 126 120 115 118 105 138 44 115 124 110 88 95 87 75 76 84 86 64 60 60 55 53 50 45 45 17 20 -5 -10 -19 -34 -20 -16 5
57 50 65 126 144 168 129 97 67 41 64 117 133 129 93 103 105 84 38 80 117 128 102 100 119 96 109 87 81 81 77 52 50 34 34 33 35 85 -3 19 16 26 10 19 36
27 47 46 52 115 135 154 161 80 46 51 94 125 147 94 83 89 123 133 81 99 133 136 111 110 98 103 70 82 70 63 34 19 31 33 33 23 50 22 36 29 50 44 53 63
41 20 37 36 46 104 139 169 82 53 59 87 112 118 65 67 77 110 151 162 72 68 123 107 109 119 122 120 53 57 59 62 55 42 64 46 46 64 91 59 45 55 45 54 40
67 37 30 42 54 63 110 171 178 58 98 113 123 123 53 -21 49 64 70 151 115 83 77 97 116 129 97 85 66 31 71 28 57 50 62 33 39 103 104 73 46 33 35 29 21
51 52 48 51 68 73 83 167 163 160 175 193 249 116 130 24 39 102 112 75 132 119 109 85 112 126 110 122 80 49 25 26 51 32 17 25 -10 29 47 55 24 20 12 12 9
65 40 50 64 72 103 104 183 218 245 298 277 160 260 209 97 80 125 119 112 125 136 135 104 133 134 89 73 62 107 75 65 56 39 47 30 1 16 45 46 39 20 19 6 -9
38 58 56 74 80 136 121 171 258 278 271 187 192 20 210 222 92 146 128 203 198 152 127 148 101 93 124 81 95 64 65 48 43 51 42 14 -0 13 32 57 35 33 38 41 19
20 58 56 68 82 154 120 2 189 294 294 2 192 190 270 233 253 65 155 147 162 147 125 109 148 74 101 92 87 74 59 42 34 73 23 -6 -5 -14 5 41 35 35 24 21 27
52 59 101 73 143 150 87 38 91 218 236 229 191 211 234 228 183 211 84 191 194 156 145 108 76 70 73 73 75 84 41 50 52 46 42 90 -2 75 55 18 29 39 44 46 96
108 86 150 140 298 160 176 104 136 291 242 5 185 194 284 293 195 168 131 160 213 173 210 168 154 132 103 77 87 82 127 36 54 60 61 44 58 -6 48 7 20 50 34 45 81
145 121 142 147 126 82 101 82 224 303 278 142 214 279 169 122 222 148 201 196 159 173 138 104 111 105 56 65 104 149 96 86 102 121 84 56 101 47 70 95 68 27 38 79 66
83 106 159 197 82 160 138 211 405 352 148 269 134 123 177 366 161 275 205 222 303 343 208 175 172 170 176 132 130 118 169 180 157 197 156 137 90 126 196 202 97 87 64 94 123
61 107 120 152 118 191 184 330 485 258 143 156 116 91 89 298 268 262 274 231 169 198 212 275 238 190 239 224 243 150 205 275 159 122 88 167 160 157 79 91 1 51 62 85 97
66 129 159 137 183 240 329 387 498 339 134 404 34 76 162 265 352 376 257 302 265 229 256 192 195 67 119 232 223 200 197 148 230 228 191 146 90 84 128 110 131 33 13 68 103
114 161 154 186 204 333 323 370 385 305 221 82 94 149 208 234 382 288 364 244 205 203 222 284 239 165 128 73 132 204 149 278 263 258 215 140 98 156 178 96 17 -6 -3 32 53
163 160 180 254 340 317 372 322 207 171 256 98 168 113 143 181 286 254 391 313 254 220 225 281 249 218 119 204 209 243 315 306 243 237 252 126 136 160 109 71 34 63 8 72 85
136 142 139 578 269 319 271 276 201 137 79 96 49 133 175 174 190 237 274 408 179 346 339 297 312 287 143 97 40 80 143 216 339 212 185 189 100 149 218 225 227 182 180 113 120
148 182 247 425 275 335 259 388 186 58 19 110 171 228 113 158 204 219 229 229 237 204 390 436 473 328 258 188 213 165 111 147 140 256 201 283 180 171 219 252 251 199 159 144 141
195 174 352 278 234 256 229 160 107 102 65 58 74 170 474 95 121 151 197 280 370 150 386 389 458 413 464 341 375 341 284 188 225 317 220 255 119 149 179 217 240 194 199 125 187
157 182 295 378 304 201 115 165 120 84 -46 -3 -167 146 561 139 119 224 131 256 231 147 348 325 281 264 196 139 208 92 104 161 213 219 250 165 127 86 90 118 132 207 187 156 130
156 211 403 228 217 232 205 134 68 30 -6 -62 48 -113 255 151 154 261 156 197 357 275 246 275 449 272 173 117 186 245 130 49 41 96 96 92 116 91 65 173 224 181 157 131 104
237 199 283 259 241 210 223 81 35 54 -2 3 -30 48 49 275 94 146 109 146 222 298 316 345 418 386 338 256 272 405 280 144 100 57 112 159 127 71 76 107 207 186 184 155 152

GFSSW_con_3kmhel_207.txt.gz
Helicity
192 194 165 157 171 141 77 77 70 66 78 96 104 99 92 109 149 153 125 114 90 86 88 68 45 43 43 68 52 63 75 7 -1 36 65 97 42 85 67 73 49 60 58 115 132
162 181 191 154 141 177 158 95 66 53 64 81 95 109 112 106 140 131 80 85 79 72 63 62 61 46 51 54 59 59 49 0 124 128 87 88 60 125 45 32 37 43 81 102 106
126 151 179 171 137 142 173 159 106 66 50 66 91 100 131 137 120 83 124 103 92 79 70 87 93 85 74 46 43 40 77 80 80 128 71 74 63 68 48 25 -8 22 39 75 78
66 94 133 153 157 135 135 181 142 89 60 53 80 100 128 124 147 105 142 117 105 91 78 72 70 70 72 54 27 75 61 106 82 74 69 58 59 83 45 -6 50 61 -5 6 89
92 67 82 118 139 144 140 159 193 109 73 60 69 105 111 70 127 -23 70 108 112 83 92 80 85 71 87 62 33 70 71 67 83 63 58 60 52 59 15 14 -26 -28 6 18 29
77 82 66 70 98 127 152 168 174 134 99 66 71 106 80 108 71 119 67 137 125 120 97 101 105 97 130 100 95 84 92 97 56 54 45 39 41 62 -14 9 4 17 31 25 4
107 78 71 63 57 86 129 160 187 174 113 76 75 94 108 93 52 81 82 99 136 178 182 116 171 130 90 110 81 115 68 56 38 36 45 47 46 31 -19 26 47 53 39 29 15
116 79 81 65 56 56 86 130 176 180 138 82 82 88 84 63 88 106 111 110 64 97 134 167 128 133 136 149 105 74 39 83 30 35 53 81 50 15 16 52 64 58 56 69 57
91 104 59 81 55 54 72 100 139 153 192 66 93 93 58 -10 52 73 74 105 92 64 92 137 129 111 93 118 78 68 104 44 51 84 66 46 61 20 125 82 67 66 65 38 53
79 85 89 53 69 55 75 94 125 77 144 48 161 107 164 76 53 44 62 82 135 115 106 91 149 143 127 113 120 87 53 67 79 97 49 39 19 47 57 28 38 63 55 32 34
73 63 80 67 49 82 94 112 123 187 185 417 177 265 185 -19 68 47 102 77 97 128 120 96 138 133 98 85 85 81 80 115 36 49 95 46 42 38 30 19 31 59 55 50 39
69 63 55 86 55 76 95 52 50 244 216 134 142 -52 138 67 -8 117 22 174 138 138 119 144 116 100 87 101 96 93 124 84 94 77 22 37 35 22 25 36 37 32 56 52 37
93 62 58 65 63 83 63 -17 44 117 117 105 113 166 104 123 139 -4 77 66 145 132 125 128 137 66 140 103 117 96 100 66 69 59 17 27 23 16 -13 5 55 32 34 19 16
124 81 49 72 103 78 49 36 64 -11 142 56 69 115 127 95 79 224 39 63 125 91 99 100 101 136 45 102 91 82 57 69 77 93 79 56 40 80 46 71 46 15 25 25 29
111 77 68 73 219 105 106 53 97 227 170 44 -20 130 190 192 122 57 119 91 115 122 147 108 115 104 117 92 97 92 84 82 89 89 87 83 86 8 17 85 64 3 10 14 49
136 48 88 124 75 33 56 16 210 330 245 169 30 105 63 73 100 64 115 169 104 109 90 81 71 103 74 99 118 83 100 132 91 78 79 90 98 30 42 32 40 37 35 38 35
151 30 129 190 89 82 107 291 355 383 240 143 84 -4 -40 68 98 238 58 151 221 223 172 120 116 71 146 126 96 113 153 159 133 155 79 95 66 112 110 151 106 43 76 63 89
163 46 65 58 59 92 204 308 400 318 163 168 102 53 -88 -14 72 105 168 162 131 173 184 201 196 149 154 135 157 127 181 243 220 171 85 55 91 94 62 74 125 104 121 84 146
146 39 21 19 67 142 260 271 336 182 122 111 131 18 46 21 75 80 130 181 253 238 193 209 143 39 140 154 117 178 174 118 123 139 216 205 85 86 107 121 112 83 99 109 29
39 86 33 18 91 214 259 342 363 208 93 103 84 100 135 38 114 73 82 157 149 196 246 204 151 113 63 63 37 128 97 146 185 225 213 151 106 130 75 93 50 38 22 61 59
77 186 80 111 160 277 335 328 320 159 135 91 164 116 129 74 43 128 133 114 116 162 186 243 313 181 112 172 126 202 222 187 139 201 234 163 163 42 66 72 134 93 61 47 55
277 269 179 195 232 268 319 293 261 159 135 171 267 301 135 190 127 42 102 80 134 113 219 269 348 340 173 145 82 87 129 157 354 201 218 154 103 84 113 147 130 96 74 111 146
112 175 156 156 201 230 223 309 149 150 179 194 230 285 216 81 218 141 58 62 85 42 181 309 405 412 348 115 81 102 163 137 135 163 145 167 107 88 54 179 167 144 174 200 190
87 142 126 205 174 128 101 193 235 125 105 119 172 152 232 171 4 77 107 31 87 63 62 303 436 538 505 478 466 292 191 149 187 250 214 223 93 126 183 128 111 140 139 143 134
-7 42 169 132 161 317 301 212 198 188 192 170 155 104 104 33 146 54 287 40 53 86 93 199 267 338 386 297 243 268 229 220 250 235 232 144 122 95 100 135 151 94 69 106 113
34 64 139 204 180 277 251 293 163 104 195 235 244 121 150 42 -30 41 184 134 124 94 180 191 266 219 205 229 199 190 105 43 81 122 130 104 97 76 81 63 79 72 104 182 158
142 129 123 119 147 258 231 232 166 100 138 137 148 101 68 1 -20 14 148 -97 154 105 207 224 288 254 197 139 131 218 219 113 133 93 127 126 99 47 65 97 87 114 110 111 119

GFSSW_con_3kmhel_210.txt.gz
Helicity
136 155 171 141 151 159 175 188 155 127 80 68 62 64 86 86 107 107 116 81 70 68 66 81 93 65 53 81 110 83 105 54 -30 11 125 139 100 67 106 79 61 80 84 144 130
120 119 144 161 143 143 156 176 182 167 143 91 70 71 83 70 104 82 58 44 33 38 64 89 98 61 78 83 57 55 79 32 53 89 104 71 96 81 47 25 83 88 111 108 98
141 123 102 132 148 139 137 146 173 177 171 141 92 88 86 87 67 74 87 72 69 58 58 121 137 161 94 82 46 52 60 50 66 54 146 145 53 50 62 50 8 61 129 135 111
164 124 115 92 127 129 126 119 157 179 186 148 131 110 115 101 157 81 33 51 52 67 74 81 76 92 84 96 39 63 75 64 30 59 86 111 134 47 46 31 64 61 61 78 102
146 161 110 101 93 121 110 122 130 167 193 158 144 144 139 95 98 13 -20 5 49 45 65 74 73 69 93 73 56 23 31 44 41 97 59 137 131 98 91 38 62 71 76 68 43
98 139 149 101 79 81 112 112 130 138 163 197 163 151 128 118 64 33 -7 33 88 55 68 74 97 68 114 89 87 28 64 57 46 54 79 47 61 50 33 21 47 32 55 76 57
80 104 143 127 92 72 80 113 134 139 137 205 181 149 167 96 157 16 44 48 145 149 178 74 72 132 102 169 109 104 154 98 126 101 66 52 60 41 37 24 30 26 65 92 63
83 87 106 146 103 85 77 86 121 149 115 172 203 169 92 102 75 244 123 77 82 66 128 202 148 188 179 147 112 157 110 89 50 27 31 35 61 48 9 56 35 26 44 99 97
76 87 89 116 121 89 80 82 104 135 117 150 165 94 68 -66 77 155 129 134 130 62 52 109 140 121 122 116 141 89 95 55 24 14 16 89 72 24 -13 80 78 83 58 64 103
74 75 84 103 132 92 83 83 111 101 70 61 162 143 158 108 88 68 110 87 98 123 84 86 104 115 93 113 132 92 44 48 82 12 110 86 63 39 71 59 64 60 58 48 47
90 97 81 69 102 104 102 107 83 77 99 369 287 357 264 -38 35 30 35 92 113 127 144 92 121 122 78 74 86 77 69 23 12 5 96 87 59 57 40 30 46 65 69 85 55
105 103 83 50 71 108 86 88 55 93 79 52 205 70 102 182 281 95 69 97 107 134 139 146 125 94 75 71 62 69 103 89 46 35 80 69 76 43 42 46 23 17 44 98 127
125 97 125 55 73 104 88 16 52 151 71 103 86 112 198 164 279 132 71 88 94 121 132 136 121 73 102 96 86 79 73 83 119 71 67 64 91 73 31 -2 1 -15 62 79 61
102 91 108 105 90 82 50 36 74 95 147 100 70 101 128 128 210 176 59 30 139 90 100 108 94 101 57 83 92 87 78 91 102 144 137 67 77 54 46 29 23 60 80 42 31
79 104 93 88 109 88 76 32 67 195 110 18 35 82 57 203 257 107 130 101 114 126 154 118 122 112 142 68 68 107 52 74 58 89 96 102 147 59 77 48 54 106 83 57 55
79 112 85 76 50 45 33 4 176 246 138 160 -32 26 36 35 98 180 57 163 115 130 76 99 65 79 105 103 33 25 74 106 126 156 148 92 144 48 73 54 7 108 132 103 59
76 109 91 71 65 40 37 87 232 290 259 119 57 -64 -91 24 36 156 136 150 245 221 212 125 122 100 76 71 74 60 148 182 149 171 158 83 77 118 41 6 17 52 107 82 51
87 95 63 47 44 34 70 160 294 219 164 134 75 25 -45 -14 23 50 143 163 130 198 190 204 244 143 182 118 142 134 191 270 260 176 66 51 86 101 37 9 116 126 191 144 118
78 49 45 78 47 73 224 309 213 136 96 52 119 5 33 41 18 53 65 161 158 170 244 225 145 119 105 139 110 184 145 158 170 207 224 146 54 31 65 94 160 181 177 156 144
11 57 48 44 43 92 253 206 306 190 65 38 33 73 43 34 98 80 67 81 132 153 89 231 195 154 112 32 128 167 182 192 162 190 167 136 153 197 36 112 160 207 192 183 165
34 52 33 58 104 69 182 404 149 157 100 32 26 26 75 65 46 90 101 23 10 105 105 129 239 261 99 154 116 321 208 200 167 241 232 114 141 155 128 41 83 169 118 91 68
28 82 86 159 221 111 121 304 180 90 60 91 43 17 55 62 51 26 86 85 22 21 133 120 290 217 301 108 159 210 238 148 454 273 297 240 173 63 223 186 167 84 79 126 135
11 75 158 125 208 68 73 223 193 82 80 55 90 126 129 64 64 52 17 62 146 81 69 170 187 199 285 134 68 229 193 111 166 265 258 325 180 162 20 -1 54 109 103 112 147
18 75 107 242 129 124 184 192 246 132 100 106 78 105 158 245 203 212 129 95 29 21 33 157 127 181 260 276 359 165 213 200 133 244 259 241 142 204 148 173 165 177 177 225 267
15 62 80 110 104 79 144 181 148 165 122 141 118 94 133 156 200 213 191 118 139 151 49 29 153 49 120 115 210 212 228 222 237 241 272 273 150 125 157 175 185 200 200 195 225
80 74 32 55 85 139 142 121 137 106 109 76 146 109 126 139 130 102 87 86 37 103 70 1 92 128 63 123 107 171 165 240 282 226 173 129 107 99 97 100 94 121 179 157 159
87 104 104 71 70 90 183 140 90 32 66 97 100 70 107 111 103 107 107 90 145 52 16 -1 11 144 201 137 146 135 138 186 273 201 266 271 157 151 134 119 109 68 90 122 139

GFSSW_con_3kmhel_216.txt.gz
Helicity
138 142 140 120 114 109 135 100 123 127 106 97 112 110 96 85 93 -10 -2 34 38 84 49 52 65 70 51 89 77 100 97 47 72 165 152 90 90 167 120 146 94 89 137 51 167
152 155 146 146 114 110 106 128 107 124 136 130 113 121 95 99 -19 2 42 68 60 68 65 67 96 83 90 117 165 120 67 19 111 129 257 102 70 74 120 137 148 139 112 183 238
132 135 152 141 142 118 107 97 135 124 130 147 151 122 116 104 -24 -23 19 44 67 51 69 88 55 58 63 87 129 124 36 56 90 121 175 83 110 130 79 106 77 94 171 220 281
117 112 105 134 139 137 123 105 103 135 133 143 174 158 148 96 77 146 197 223 116 61 73 95 82 67 64 112 111 91 42 39 43 89 87 88 14 116 133 100 22 103 167 264 328
91 98 96 97 121 129 128 107 106 107 137 155 174 189 111 98 141 66 139 283 308 170 102 113 136 88 61 75 82 43 56 62 84 110 102 67 59 41 102 139 56 21 146 244 266
77 86 84 94 98 113 128 133 94 103 104 150 172 192 98 93 111 96 59 87 221 279 266 141 152 110 82 64 100 128 162 113 83 148 81 93 35 57 49 67 77 115 98 141 218
76 99 85 105 109 101 118 132 113 99 99 117 165 160 117 67 131 185 208 78 41 146 255 234 129 203 180 127 62 52 49 45 36 132 108 108 146 71 72 92 82 66 64 104 109
79 93 91 103 102 106 102 116 115 106 94 100 117 119 89 88 35 60 119 113 55 54 158 268 157 160 142 134 167 115 68 50 52 92 137 141 83 97 68 84 86 74 77 42 56
74 99 105 98 104 108 105 119 115 105 92 94 116 104 59 14 65 68 73 115 185 127 129 190 167 163 228 174 173 135 87 92 63 123 124 102 59 34 41 109 87 76 109 68 30
66 86 97 103 108 110 115 110 111 119 115 89 117 190 131 26 49 27 65 86 130 207 232 155 206 208 230 255 201 243 183 93 56 61 104 73 84 16 6 20 129 72 82 82 47
50 67 88 102 86 110 113 123 135 161 149 181 129 237 188 -30 62 85 188 121 154 212 245 267 260 205 173 243 224 223 187 125 106 97 96 106 98 92 55 84 82 70 104 101 67
29 44 64 79 77 112 104 172 131 180 182 128 139 110 139 67 201 255 184 269 268 229 220 322 243 161 175 181 182 149 127 99 58 77 15 40 128 74 99 68 96 53 99 84 76
36 47 59 65 69 63 87 75 50 104 138 107 128 118 89 107 136 187 296 271 335 295 252 236 256 166 171 159 175 153 137 116 103 87 -10 28 45 124 88 64 113 101 101 116 92
30 38 47 57 44 47 95 47 18 67 158 89 98 93 115 117 147 18 117 356 332 242 227 237 144 202 165 134 158 166 140 157 123 131 112 85 83 91 117 170 111 112 123 42 40
18 32 34 33 34 54 65 75 64 98 242 73 53 113 91 179 143 101 74 223 274 306 263 211 149 166 205 140 164 165 147 138 118 135 148 108 145 -22 42 125 169 159 71 9 22
5 2 8 19 15 9 26 25 78 201 225 146 69 109 194 151 123 218 174 154 214 241 249 138 200 126 140 119 116 111 159 135 125 131 162 101 137 -20 81 113 77 124 59 -32 -47
15 3 -14 9 1 20 -19 32 174 257 204 166 148 104 98 117 117 57 269 274 255 312 245 165 188 169 184 153 119 137 209 227 266 282 239 145 177 155 117 121 104 89 74 -2 -1
18 15 49 61 -12 57 -29 37 180 165 132 147 119 94 101 124 139 90 11 242 278 232 199 225 238 200 242 176 227 145 212 415 456 399 274 279 243 216 76 107 82 60 60 56 53
22 60 72 87 45 24 45 52 127 121 44 78 117 142 72 52 98 109 101 59 217 200 298 231 213 167 161 182 202 208 253 126 262 354 303 267 166 201 161 133 51 77 35 56 124
63 76 78 88 56 29 51 74 97 55 46 49 68 123 78 73 68 82 94 84 21 210 200 177 200 88 120 96 119 176 145 278 309 264 278 342 233 232 96 44 135 130 142 123 126
72 19 6 40 65 32 71 86 18 111 145 48 31 44 72 57 48 58 39 164 136 71 153 168 204 147 200 181 149 163 143 178 194 308 314 268 234 268 192 129 36 125 98 126 180
50 35 3 50 45 81 72 153 33 51 53 78 42 40 43 -47 -1 45 48 19 49 107 39 74 152 93 156 223 183 177 136 155 249 264 325 241 175 96 62 77 38 70 16 134 177
39 69 20 -19 90 95 80 43 71 99 99 80 64 61 48 35 15 -25 -33 -8 -3 12 95 84 169 117 94 27 3 143 241 167 194 165 206 316 215 199 133 176 112 116 130 72 101
24 17 0 24 20 33 37 18 27 0 8 15 38 73 13 13 44 38 -6 14 -3 -39 -5 73 156 210 137 142 208 178 137 196 239 289 243 224 171 182 101 81 -22 108 103 104 120
58 27 -4 2 24 61 173 68 -47 57 91 107 52 34 44 29 -8 -6 -15 -8 37 -36 -47 42 52 106 142 169 198 164 114 239 208 164 262 178 173 143 195 165 95 -4 -62 -49 29
137 67 7 -1 -27 3 23 63 140 98 103 99 88 44 105 64 39 -5 -27 -77 -83 31 58 46 -69 -88 -107 -91 -47 253 171 120 163 289 190 159 139 73 159 237 181 153 58 82 151
90 60 65 20 -1 -29 36 47 42 29 1 34 67 67 50 46 69 39 -8 -33 -42 -36 -25 19 4 -132 -129 -81 -76 -143 50 120 93 59 214 167 131 84 74 117 148 125 108 110 92